When you browse on this site, cookies collect data to enhance your experience and personalize the content and advertising you see.
Visit our Privacy Policy to learn more. By continuing to use the site, you agree to this use of cookies and data.
  • în România
  • Lista ţărilor
  • Pe 7 zile
  • Temperatura apei
  • Meteo pe hartă
  • Widget-uri
  • user-avatar
    Intrare

    Meteo pe oră la Diapaga

    Astăzi, 22 Noiembrie, Vineri

    Timp Temperatura Precipitaţii Vânt Presiune Umiditate
    00:00 +29°C° 0 mm 1 m/s 734 mmHg 22%
    01:00 +28°C° 0 mm 1 m/s 734 mmHg 22%
    02:00 +28°C° 0 mm 1 m/s 733 mmHg 23%
    03:00 +25°C° 0 mm 0 m/s 733 mmHg 24%
    04:00 +25°C° 0 mm 0 m/s 733 mmHg 25%
    05:00 +25°C° 0 mm 0 m/s 733 mmHg 25%
    06:00 +24°C° 0 mm 0 m/s 734 mmHg 26%
    07:00 +27°C° 0 mm 0 m/s 734 mmHg 23%
    08:00 +30°C° 0 mm 0 m/s 735 mmHg 20%
    09:00 +33°C° 0 mm 0 m/s 735 mmHg 17%
    10:00 +37°C° 0 mm 1 m/s 735 mmHg 15%
    11:00 +39°C° 0 mm 1 m/s 734 mmHg 14%
    12:00 +41°C° 0 mm 2 m/s 734 mmHg 12%
    13:00 +41°C° 0 mm 2 m/s 733 mmHg 11%
    14:00 +41°C° 0 mm 2 m/s 733 mmHg 11%
    15:00 +41°C° 0 mm 2 m/s 732 mmHg 11%
    16:00 +39°C° 0 mm 2 m/s 732 mmHg 13%
    17:00 +37°C° 0 mm 2 m/s 733 mmHg 15%
    18:00 +35°C° 0 mm 2 m/s 733 mmHg 17%
    19:00 +34°C° 0 mm 2 m/s 733 mmHg 17%
    20:00 +32°C° 0 mm 1 m/s 734 mmHg 18%
    21:00 +31°C° 0 mm 1 m/s 735 mmHg 19%
    22:00 +30°C° 0 mm 1 m/s 734 mmHg 20%
    23:00 +29°C° 0 mm 1 m/s 734 mmHg 21%

    Mâine, 23 Noiembrie, Sâmbătă

    Timp Temperatura Precipitaţii Vânt Presiune Umiditate
    00:00 +29°C° 0 mm 1 m/s 734 mmHg 21%
    01:00 +28°C° 0 mm 1 m/s 734 mmHg 22%
    02:00 +28°C° 0 mm 1 m/s 734 mmHg 23%
    03:00 +27°C° 0 mm 1 m/s 733 mmHg 24%
    04:00 +27°C° 0 mm 1 m/s 734 mmHg 25%
    05:00 +27°C° 0 mm 1 m/s 734 mmHg 25%
    06:00 +26°C° 0 mm 1 m/s 734 mmHg 26%
    07:00 +29°C° 0 mm 1 m/s 734 mmHg 23%
    08:00 +32°C° 0 mm 1 m/s 735 mmHg 20%
    09:00 +35°C° 0 mm 1 m/s 735 mmHg 16%
    10:00 +37°C° 0 mm 1 m/s 735 mmHg 14%
    11:00 +40°C° 0 mm 2 m/s 734 mmHg 12%
    12:00 +41°C° 0 mm 2 m/s 734 mmHg 11%
    13:00 +42°C° 0 mm 2 m/s 733 mmHg 10%
    14:00 +42°C° 0 mm 2 m/s 733 mmHg 10%
    15:00 +42°C° 0 mm 2 m/s 732 mmHg 9%
    16:00 +40°C° 0 mm 2 m/s 732 mmHg 11%
    17:00 +37°C° 0 mm 2 m/s 732 mmHg 13%
    18:00 +35°C° 0 mm 2 m/s 732 mmHg 15%
    19:00 +34°C° 0 mm 2 m/s 733 mmHg 16%
    20:00 +31°C° 0 mm 2 m/s 733 mmHg 17%
    21:00 +30°C° 0 mm 2 m/s 734 mmHg 18%
    22:00 +30°C° 0 mm 2 m/s 734 mmHg 19%
    23:00 +29°C° 0 mm 2 m/s 734 mmHg 19%

    Poimâine, 24 Noiembrie, Duminică

    Timp Temperatura Precipitaţii Vânt Presiune Umiditate
    00:00 +29°C° 0 mm 2 m/s 733 mmHg 20%
    01:00 +28°C° 0 mm 1 m/s 733 mmHg 21%
    02:00 +28°C° 0 mm 1 m/s 733 mmHg 23%
    03:00 +27°C° 0 mm 1 m/s 733 mmHg 25%
    04:00 +25°C° 0 mm 0 m/s 733 mmHg 26%
    05:00 +24°C° 0 mm 0 m/s 733 mmHg 27%
    06:00 +24°C° 0 mm 0 m/s 733 mmHg 28%
    07:00 +27°C° 0 mm 0 m/s 734 mmHg 25%
    08:00 +30°C° 0 mm 0 m/s 735 mmHg 22%
    09:00 +33°C° 0 mm 0 m/s 735 mmHg 19%
    10:00 +35°C° 0 mm 0 m/s 735 mmHg 16%
    11:00 +40°C° 0 mm 1 m/s 734 mmHg 14%
    12:00 +43°C° 0 mm 1 m/s 734 mmHg 11%
    13:00 +42°C° 0 mm 1 m/s 733 mmHg 11%
    14:00 +42°C° 0 mm 1 m/s 733 mmHg 10%
    15:00 +42°C° 0 mm 1 m/s 732 mmHg 10%
    16:00 +40°C° 0 mm 1 m/s 732 mmHg 12%
    17:00 +37°C° 0 mm 2 m/s 732 mmHg 13%
    18:00 +35°C° 0 mm 2 m/s 732 mmHg 15%
    19:00 +34°C° 0 mm 2 m/s 733 mmHg 16%
    20:00 +32°C° 0 mm 1 m/s 733 mmHg 18%
    21:00 +31°C° 0 mm 1 m/s 734 mmHg 19%
    22:00 +30°C° 0 mm 1 m/s 734 mmHg 20%
    23:00 +29°C° 0 mm 1 m/s 734 mmHg 21%

    25 Noiembrie, Luni

    Timp Temperatura Precipitaţii Vânt Presiune Umiditate
    00:00 +29°C° 0 mm 1 m/s 734 mmHg 22%
    01:00 +29°C° 0 mm 1 m/s 733 mmHg 23%
    02:00 +28°C° 0 mm 1 m/s 733 mmHg 23%
    03:00 +28°C° 0 mm 1 m/s 733 mmHg 24%
    04:00 +27°C° 0 mm 1 m/s 733 mmHg 25%
    05:00 +27°C° 0 mm 1 m/s 733 mmHg 26%
    06:00 +26°C° 0 mm 1 m/s 734 mmHg 26%
    07:00 +29°C° 0 mm 1 m/s 734 mmHg 23%
    08:00 +30°C° 0 mm 0 m/s 735 mmHg 20%
    09:00 +34°C° 0 mm 0 m/s 735 mmHg 17%
    10:00 +37°C° 0 mm 1 m/s 735 mmHg 15%
    11:00 +40°C° 0 mm 2 m/s 734 mmHg 12%
    12:00 +42°C° 0 mm 3 m/s 734 mmHg 10%
    13:00 +43°C° 0 mm 3 m/s 733 mmHg 10%
    14:00 +43°C° 0 mm 4 m/s 732 mmHg 9%
    15:00 +43°C° 0 mm 4 m/s 732 mmHg 9%
    16:00 +41°C° 0 mm 4 m/s 732 mmHg 10%
    17:00 +37°C° 0 mm 3 m/s 732 mmHg 12%
    18:00 +35°C° 0 mm 3 m/s 732 mmHg 14%
    19:00 +34°C° 0 mm 3 m/s 733 mmHg 15%
    20:00 +33°C° 0 mm 3 m/s 733 mmHg 16%
    21:00 +31°C° 0 mm 2 m/s 734 mmHg 17%
    22:00 +30°C° 0 mm 2 m/s 734 mmHg 17%
    23:00 +30°C° 0 mm 2 m/s 733 mmHg 18%

    26 Noiembrie, Marţi

    Timp Temperatura Precipitaţii Vânt Presiune Umiditate
    00:00 +30°C° 0 mm 1 m/s 733 mmHg 18%
    01:00 +29°C° 0 mm 1 m/s 733 mmHg 18%
    02:00 +29°C° 0 mm 1 m/s 733 mmHg 19%
    03:00 +28°C° 0 mm 1 m/s 732 mmHg 19%
    04:00 +28°C° 0 mm 1 m/s 733 mmHg 20%
    05:00 +27°C° 0 mm 1 m/s 733 mmHg 21%
    06:00 +26°C° 0 mm 1 m/s 733 mmHg 22%
    07:00 +29°C° 0 mm 1 m/s 734 mmHg 19%
    08:00 +32°C° 0 mm 1 m/s 735 mmHg 16%
    09:00 +35°C° 0 mm 1 m/s 735 mmHg 14%
    10:00 +38°C° 0 mm 2 m/s 735 mmHg 12%
    11:00 +40°C° 0 mm 2 m/s 734 mmHg 11%
    12:00 +42°C° 0 mm 3 m/s 734 mmHg 9%
    13:00 +43°C° 0 mm 3 m/s 733 mmHg 9%
    14:00 +43°C° 0 mm 4 m/s 732 mmHg 9%
    15:00 +43°C° 0 mm 4 m/s 732 mmHg 8%
    16:00 +40°C° 0 mm 4 m/s 732 mmHg 10%
    17:00 +37°C° 0 mm 3 m/s 732 mmHg 12%
    18:00 +34°C° 0 mm 3 m/s 732 mmHg 14%
    19:00 +33°C° 0 mm 3 m/s 733 mmHg 15%
    20:00 +31°C° 0 mm 3 m/s 733 mmHg 16%
    21:00 +30°C° 0 mm 3 m/s 734 mmHg 17%
    22:00 +30°C° 0 mm 2 m/s 734 mmHg 17%
    23:00 +30°C° 0 mm 2 m/s 733 mmHg 17%

    27 Noiembrie, Miercuri

    Timp Temperatura Precipitaţii Vânt Presiune Umiditate
    00:00 +30°C° 0 mm 1 m/s 733 mmHg 18%
    01:00 +29°C° 0 mm 1 m/s 733 mmHg 18%
    02:00 +29°C° 0 mm 1 m/s 733 mmHg 18%
    03:00 +29°C° 0 mm 1 m/s 732 mmHg 18%
    04:00 +28°C° 0 mm 1 m/s 732 mmHg 19%
    05:00 +27°C° 0 mm 2 m/s 733 mmHg 20%
    06:00 +27°C° 0 mm 2 m/s 733 mmHg 20%
    07:00 +30°C° 0 mm 2 m/s 734 mmHg 18%
    08:00 +34°C° 0 mm 2 m/s 734 mmHg 15%
    09:00 +37°C° 0 mm 2 m/s 735 mmHg 13%
    10:00 +39°C° 0 mm 3 m/s 734 mmHg 11%
    11:00 +41°C° 0 mm 4 m/s 734 mmHg 10%
    12:00 +43°C° 0 mm 5 m/s 733 mmHg 8%
    13:00 +43°C° 0 mm 5 m/s 733 mmHg 8%
    14:00 +43°C° 0 mm 4 m/s 732 mmHg 8%
    15:00 +43°C° 0 mm 4 m/s 732 mmHg 8%
    16:00 +40°C° 0 mm 4 m/s 732 mmHg 10%
    17:00 +37°C° 0 mm 3 m/s 732 mmHg 11%
    18:00 +34°C° 0 mm 3 m/s 732 mmHg 13%
    19:00 +32°C° 0 mm 2 m/s 733 mmHg 14%
    20:00 +31°C° 0 mm 2 m/s 733 mmHg 15%
    21:00 +30°C° 0 mm 2 m/s 734 mmHg 16%
    22:00 +30°C° 0 mm 2 m/s 734 mmHg 16%
    23:00 +29°C° 0 mm 1 m/s 733 mmHg 17%
    Arată mai mult